H1 CPF 2 NER 2023 5 5 9 125 01 glonass142 H2 2001801 9142 45358 2023 5 5 0 0 0 2023 5 8 23 45 0 900 1 1 0 0 0 1 H9 10 0 60069 0.00000 0 -3402895.390 -12195762.655 22152480.446 10 0 60069 900.00000 0 -1819434.767 -14337273.020 21026827.332 10 0 60069 1800.00000 0 -488279.147 -16453430.033 19493126.396 10 0 60069 2700.00000 0 578108.899 -18478175.394 17581071.110 10 0 60069 3600.00000 0 1379911.392 -20346005.711 15327704.699 10 0 60069 4500.00000 0 1929707.933 -21994611.589 12776709.250 10 0 60069 5400.00000 0 2251702.284 -23367403.672 9977564.840 10 0 60069 6300.00000 0 2380455.510 -24415820.083 6984594.217 10 0 60069 7200.00000 0 2359179.357 -25101318.343 3855911.042 10 0 60069 8100.00000 0 2237662.278 -25396967.777 652291.868 10 0 60069 9000.00000 0 2069916.208 -25288574.874 -2564006.248 10 0 60069 9900.00000 0 1911644.211 -24775293.574 -5730459.162 10 0 60069 10800.00000 0 1817636.969 -23869694.070 -8785495.953 10 0 60069 11700.00000 0 1839209.239 -22597286.619 -11669701.755 10 0 60069 12600.00000 0 2021785.863 -20995519.856 -14326978.894 10 0 60069 13500.00000 0 2402740.613 -19112295.437 -16705643.129 10 0 60069 14400.00000 0 3009580.405 -17004061.203 -18759433.068 10 0 60069 15300.00000 0 3858552.751 -14733562.861 -20448412.780 10 0 60069 16200.00000 0 4953736.275 -12367348.458 -21739749.875 10 0 60069 17100.00000 0 6286653.678 -9973130.095 -22608353.996 10 0 60069 18000.00000 0 7836424.335 -7617113.203 -23037363.477 10 0 60069 18900.00000 0 9570450.996 -5361404.679 -23018471.053 10 0 60069 19800.00000 0 11445612.541 -3261607.686 -22552082.620 10 0 60069 20700.00000 0 13409913.436 -1364702.837 -21647306.259 10 0 60069 21600.00000 0 15404521.381 292696.707 -20321772.039 10 0 60069 22500.00000 0 17366108.348 1685644.538 -18601286.189 10 0 60069 23400.00000 0 19229397.354 2801661.677 -16519326.496 10 0 60069 24300.00000 0 20929808.688 3641006.658 -14116388.718 10 0 60069 25200.00000 0 22406094.990 4216405.240 -11439196.714 10 0 60069 26100.00000 0 23602854.937 4552252.688 -8539791.681 10 0 60069 27000.00000 0 24472820.277 4683323.705 -5474518.277 10 0 60069 27900.00000 0 24978820.456 4653045.804 -2302927.488 10 0 60069 28800.00000 0 25095342.455 4511410.197 913382.159 10 0 60069 29700.00000 0 24809620.590 4312609.523 4111962.241 10 0 60069 30600.00000 0 24122210.683 4112503.123 7230727.387 10 0 60069 31500.00000 0 23047024.732 3966017.688 10209159.670 10 0 60069 32400.00000 0 21610824.846 3924593.645 12989480.956 10 0 60069 33300.00000 0 19852197.795 4033785.530 15517770.474 10 0 60069 34200.00000 0 17820053.204 4331117.880 17745006.121 10 0 60069 35100.00000 0 15571708.122 4844287.284 19628009.738 10 0 60069 36000.00000 0 13170637.705 5589786.545 21130278.626 10 0 60069 36900.00000 0 10683985.403 6572009.179 22222687.850 10 0 60069 37800.00000 0 8179935.694 7782872.339 22884050.446 10 0 60069 38700.00000 0 5725057.851 9201974.739 23101525.338 10 0 60069 39600.00000 0 3381730.213 10797283.844 22870865.513 10 0 60069 40500.00000 0 1205750.936 12526324.731 22196501.923 10 0 60069 41400.00000 0 -755766.613 14337822.182 21091461.407 10 0 60069 42300.00000 0 -2466127.333 16173728.656 19577119.920 10 0 60069 43200.00000 0 -3900345.613 17971554.695 17682795.231 10 0 60069 44100.00000 0 -5045941.380 19666905.446 15445186.176 10 0 60069 45000.00000 0 -5903208.454 21196118.060 12907668.466 10 0 60069 45900.00000 0 -6484944.671 22498890.100 10119459.805 10 0 60069 46800.00000 0 -6815655.596 23520789.034 7134669.735 10 0 60069 47700.00000 0 -6930265.807 24215537.324 4011252.117 10 0 60069 48600.00000 0 -6872392.496 24546976.717 809880.315 10 0 60069 49500.00000 0 -6692254.735 24490628.400 -2407233.095 10 0 60069 50400.00000 0 -6444307.367 24034782.538 -5577548.770 10 0 60069 51300.00000 0 -6184700.286 23181070.373 -8639421.150 10 0 60069 52200.00000 0 -5968671.487 21944493.909 -11533302.688 10 0 60069 53100.00000 0 -5847985.138 20352911.117 -14202907.576 10 0 60069 54000.00000 0 -5868524.080 18445997.631 -16596311.658 10 0 60069 54900.00000 0 -6068139.617 16273728.066 -18666966.597 10 0 60069 55800.00000 0 -6474850.434 13894440.327 -20374608.141 10 0 60069 56700.00000 0 -7105467.612 11372563.804 -21686040.687 10 0 60069 57600.00000 0 -7964704.602 8776106.331 -22575782.918 10 0 60069 58500.00000 0 -9044810.360 6174004.774 -23026562.118 10 0 60069 59400.00000 0 -10325741.782 3633449.576 -23029647.899 10 0 60069 60300.00000 0 -11775868.750 1217294.430 -22585019.164 10 0 60069 61200.00000 0 -13353182.700 -1018341.514 -21701361.409 10 0 60069 62100.00000 0 -15006958.410 -3026179.767 -20395894.668 10 0 60069 63000.00000 0 -16679799.681 -4769510.192 -18694035.613 10 0 60069 63900.00000 0 -18309983.388 -6223469.386 -16628900.482 10 0 60069 64800.00000 0 -19834003.807 -7375817.788 -14240658.484 10 0 60069 65700.00000 0 -21189210.596 -8227184.554 -11575748.282 10 0 60069 66600.00000 0 -22316429.810 -8790771.538 -8685972.773 10 0 60069 67500.00000 0 -23162457.866 -9091530.450 -5627489.873 10 0 60069 68400.00000 0 -23682323.734 -9164849.344 -2459719.023 10 0 60069 69300.00000 0 -23841224.183 -9054805.206 755815.029 10 0 60069 70200.00000 0 -23616050.789 -8812057.599 3956678.441 10 0 60069 71100.00000 0 -22996444.446 -8491473.337 7080740.961 10 0 60069 72000.00000 0 -21985333.110 -8149583.358 10067381.226 10 0 60069 72900.00000 0 -20598930.175 -7841979.813 12858661.152 10 0 60069 73800.00000 0 -18866193.451 -7620763.696 15400446.668 10 0 60069 74700.00000 0 -16827767.333 -7532150.958 17643453.204 10 0 60069 75600.00000 0 -14534452.113 -7614338.170 19544196.105 10 0 60069 76500.00000 0 -12045263.971 -7895717.685 21065828.133 10 0 60069 77400.00000 0 -9425166.008 -8393517.484 22178848.467 10 0 60069 78300.00000 0 -6742564.002 -9112923.064 22861670.210 10 0 60069 79200.00000 0 -4066670.164 -10046718.579 23101036.042 10 0 60069 80100.00000 0 -1464843.357 -11175462.846 22892274.430 10 0 60069 81000.00000 0 999984.868 -12468193.637 22239391.706 10 0 60069 81900.00000 0 3271692.752 -13883631.727 21154998.174 10 0 60069 82800.00000 0 5303061.428 -15371835.391 19660069.344 10 0 60069 83700.00000 0 7057492.708 -16876237.203 17783546.338 10 0 60069 84600.00000 0 8510280.988 -18335978.930 15561782.407 10 0 60069 85500.00000 0 9649387.026 -19688447.517 13037845.426 10 0 60070 0.00000 0 10475681.884 -20871906.371 10260689.251 10 0 60070 900.00000 0 11002651.817 -21828112.363 7284207.719 10 0 60070 1800.00000 0 11255575.936 -22504806.991 4166192.882 10 0 60070 2700.00000 0 11270213.211 -22857978.617 967212.455 10 0 60070 3600.00000 0 11091053.454 -22853798.240 -2250568.073 10 0 60070 4500.00000 0 10769207.173 -22470146.989 -5424596.886 10 0 60070 5400.00000 0 10360024.009 -21697669.806 -8493156.561 10 0 60070 6300.00000 0 9920541.205 -20540309.785 -11396569.660 10 0 60070 7200.00000 0 9506870.878 -19015299.615 -14078364.988 10 0 60070 8100.00000 0 9171637.479 -17152609.497 -16486381.140 10 0 60070 9000.00000 0 8961574.667 -14993873.908 -18573785.336 10 0 60070 9900.00000 0 8915384.023 -12590841.625 -20299987.286 10 0 60070 10800.00000 0 9061946.733 -10003413.440 -21631430.163 10 0 60070 11700.00000 0 9418964.370 -7297349.274 -22542243.322 10 0 60070 12600.00000 0 9992086.577 -4541740.166 -23014744.246 10 0 60070 13500.00000 0 10774562.801 -1806350.265 -23039780.262 10 0 60070 14400.00000 0 11747433.081 841060.813 -22616903.742 10 0 60070 15300.00000 0 12880250.103 3337324.240 -21754377.682 10 0 60070 16200.00000 0 14132302.376 5626249.844 -20469011.828 10 0 60070 17100.00000 0 15454287.301 7660717.059 -18785832.711 10 0 60070 18000.00000 0 16790363.925 9404382.840 -16737594.096 10 0 60070 18900.00000 0 18080499.201 10832936.580 -14364137.378 10 0 60070 19800.00000 0 19263009.166 11934851.037 -11711614.386 10 0 60070 20700.00000 0 20277188.114 12711599.354 -8831587.707 10 0 60070 21600.00000 0 21065915.138 13177330.677 -5780026.124 10 0 60070 22500.00000 0 21578128.209 13358019.589 -2616214.812 10 0 60070 23400.00000 0 21771061.540 13290126.622 598398.253 10 0 60070 24300.00000 0 21612151.879 13018827.656 3801396.981 10 0 60070 25200.00000 0 21080533.363 12595888.027 6930609.492 10 0 60070 26100.00000 0 20168057.853 12077272.016 9925314.215 10 0 60070 27000.00000 0 18879797.669 11520589.291 12727416.244 10 0 60070 27900.00000 0 17234009.354 10982486.547 15282571.151 10 0 60070 28800.00000 0 15261559.664 10516094.581 17541234.618 10 0 60070 29700.00000 0 13004837.379 10168638.478 19459617.949 10 0 60070 30600.00000 0 10516195.824 9979311.436 21000531.514 10 0 60070 31500.00000 0 7855990.374 9977501.589 22134100.419 10 0 60070 32400.00000 0 5090291.799 10181446.184 22838339.266 10 0 60070 33300.00000 0 2288369.530 10597369.670 23099575.496 10 0 60070 34200.00000 0 -479951.719 11219141.975 22912713.597 10 0 60070 35100.00000 0 -3146953.435 12028471.683 22281335.319 10 0 60070 36000.00000 0 -5649593.665 12995626.596 21217633.930 10 0 60070 36900.00000 0 -7931880.703 14080652.224 19742183.465 10 0 60070 37800.00000 0 -9946952.570 15235038.005 17883546.872 10 0 60070 38700.00000 0 -11658776.810 16403762.266 15677729.847 10 0 60070 39600.00000 0 -13043400.523 17527630.920 13167490.094 10 0 60070 40500.00000 0 -14089699.204 18545812.279 10401514.495 10 0 60070 41400.00000 0 -14799593.576 19398461.805 7433479.387 10 0 60070 42300.00000 0 -15187725.792 20029326.334 4321011.621 10 0 60070 43200.00000 0 -15280609.039 20388217.808 1124570.289 10 0 60070 44100.00000 0 -15115286.753 20433251.558 -2093729.210 10 0 60070 45000.00000 0 -14737558.426 20132753.880 -5271325.564 10 0 60070 45900.00000 0 -14199847.476 19466757.262 -8346432.403 10 0 60070 46800.00000 0 -13558801.859 18428019.018 -11259245.195 10 0 60070 47700.00000 0 -12872729.580 17022519.104 -13953109.961 10 0 60070 48600.00000 0 -12198978.246 15269414.962 -16375630.409 10 0 60070 49500.00000 0 -11591370.166 13200454.172 -18479691.371 10 0 60070 50400.00000 0 -11097802.027 10858868.649 -20224378.238 10 0 60070 51300.00000 0 -10758111.090 8297795.954 -21575774.318 10 0 60070 52200.00000 0 -10602298.347 5578293.122 -22507620.639 10 0 60070 53100.00000 0 -10649183.862 2767025.497 -23001825.513 10 0 60070 54000.00000 0 -10905551.112 -66273.468 -23048814.256 10 0 60070 54900.00000 0 -11365816.361 -2851466.069 -22647712.600 10 0 60070 55800.00000 0 -12012236.966 -5520687.417 -21806360.561 10 0 60070 56700.00000 0 -12815649.717 -8010924.916 -20541156.746 10 0 60070 57600.00000 0 -13736708.030 -10266393.528 -18876736.342 10 0 60070 58500.00000 0 -14727565.770 -12240608.781 -16845489.113 10 0 60070 59400.00000 0 -15733936.709 -13898072.195 -14486926.850 10 0 60070 60300.00000 0 -16697442.729 -15215500.018 -11846912.538 10 0 60070 61200.00000 0 -17558151.728 -16182545.245 -8976766.291 10 0 60070 62100.00000 0 -18257198.058 -16801984.147 -5932265.489 10 0 60070 63000.00000 0 -18739374.890 -17089360.995 -2772558.690 10 0 60070 63900.00000 0 -18955588.930 -17072107.330 440985.318 10 0 60070 64800.00000 0 -18865073.797 -16788174.257 3645970.680 10 0 60070 65700.00000 0 -18437268.475 -16284236.558 6780186.429 10 0 60070 66600.00000 0 -17653281.448 -15613545.378 9782813.367 10 0 60070 67500.00000 0 -16506878.551 -14833520.776 12595602.354 10 0 60070 68400.00000 0 -15004952.651 -14003186.212 15164001.141 10 0 60070 69300.00000 0 -13167454.959 -13180553.328 17438208.060 10 0 60070 70200.00000 0 -11026790.308 -12420067.226 19374132.553 10 0 60070 71100.00000 0 -8626700.932 -11770219.572 20934244.488 10 0 60070 72000.00000 0 -6020684.560 -11271429.590 22088296.439 10 0 60070 72900.00000 0 -3270011.700 -10954281.595 22813905.661 10 0 60070 73800.00000 0 -441423.495 -10838192.719 23096985.122 10 0 60070 74700.00000 0 2395395.406 -10930566.474 22932015.717 10 0 60070 75600.00000 0 5170465.303 -11226467.578 22322154.648 10 0 60070 76500.00000 0 7816172.639 -11708831.828 21279177.869 10 0 60070 77400.00000 0 10269834.644 -12349202.540 19823257.377 10 0 60070 78300.00000 0 12476062.053 -13108963.192 17982577.108 10 0 60070 79200.00000 0 14388822.645 -13941015.132 15792794.090 10 0 60070 80100.00000 0 15973120.453 -14791830.494 13296354.449 10 0 60070 81000.00000 0 17206221.227 -15603794.548 10541676.636 10 0 60070 81900.00000 0 18078373.445 -16317739.215 7582216.944 10 0 60070 82800.00000 0 18592994.986 -16875561.103 4475434.913 10 0 60070 83700.00000 0 18766317.982 -17222813.425 1281678.384 10 0 60070 84600.00000 0 18626507.045 -17311161.866 -1936990.166 10 0 60070 85500.00000 0 18212288.354 -17100599.875 -5118002.889 10 0 60071 0.00000 0 17571147.863 -16561328.787 -8199507.189 10 0 60071 900.00000 0 16757174.794 -15675221.811 -11121574.947 10 0 60071 1800.00000 0 15828642.944 -14436809.517 -13827371.968 10 0 60071 2700.00000 0 14845431.438 -12853742.982 -16264269.749 10 0 60071 3600.00000 0 13866395.276 -10946714.403 -18384873.206 10 0 60071 4500.00000 0 12946796.922 -8748837.141 -20147945.613 10 0 60071 5400.00000 0 12135907.815 -6304510.146 -21519212.308 10 0 60071 6300.00000 0 11474881.192 -3667813.474 -22472027.529 10 0 60071 7200.00000 0 10994986.019 -900501.226 -22987891.561 10 0 60071 8100.00000 0 10716276.311 1930324.942 -23056808.447 10 0 60071 9000.00000 0 10646751.625 4754765.306 -22677477.618 10 0 60071 9900.00000 0 10782043.737 7502788.903 -21857316.059 10 0 60071 10800.00000 0 11105642.208 10106907.252 -20612310.834 10 0 60071 11700.00000 0 11589648.900 12504744.335 -18966705.032 10 0 60071 12600.00000 0 12196029.183 14641396.507 -16952523.350 10 0 60071 13500.00000 0 12878306.654 16471484.904 -14608946.572 10 0 60071 14400.00000 0 13583629.562 17960815.703 -11981547.121 10 0 60071 15300.00000 0 14255121.359 19087580.000 -9121400.581 10 0 60071 16200.00000 0 14834415.882 19843044.341 -6084090.557 10 0 60071 17100.00000 0 15264269.808 20231704.280 -2928626.324 10 0 60071 18000.00000 0 15491141.781 20270895.860 283705.416 10 0 60071 18900.00000 0 15467628.969 19989882.626 3490532.095 10 0 60071 19800.00000 0 15154657.926 19428457.812 6629606.781 10 0 60071 20700.00000 0 14523336.962 18635121.551 9640015.751 10 0 60071 21600.00000 0 13556391.596 17664910.753 12463358.627 10 0 60071 22500.00000 0 12249122.194 16576973.568 15044878.176 10 0 60071 23400.00000 0 10609843.032 15431990.914 17334518.006 10 0 60071 24300.00000 0 8659783.691 14289553.564 19287888.079 10 0 60071 25200.00000 0 6432456.132 13205604.875 20867119.857 10 0 60071 26100.00000 0 3972512.968 12230056.175 22041595.156 10 0 60071 27000.00000 0 1334143.460 11404674.364 22788535.300 10 0 60071 27900.00000 0 -1420927.180 10761329.713 23093439.792 10 0 60071 28800.00000 0 -4225753.282 10320676.771 22950366.473 10 0 60071 29700.00000 0 -7010704.181 10091323.178 22362048.046 10 0 60071 30600.00000 0 -9706115.746 10069520.925 21339842.663 10 0 60071 31500.00000 0 -12244949.144 10239392.915 19903519.253 10 0 60071 32400.00000 0 -14565347.556 10573685.388 18080881.195 10 0 60071 33300.00000 0 -16612985.569 11035014.907 15907234.834 10 0 60071 34200.00000 0 -18343114.161 11577557.817 13424712.316 10 0 60071 35100.00000 0 -19722216.628 12149111.479 10681460.966 10 0 60071 36000.00000 0 -20729206.637 12693440.685 7730714.154 10 0 60071 36900.00000 0 -21356118.505 13152810.404 4629761.118 10 0 60071 37800.00000 0 -21608260.892 13470597.789 1438835.437 10 0 60071 38700.00000 0 -21503827.562 13593872.619 -1780056.326 10 0 60071 39600.00000 0 -21072981.734 13475836.392 -4964342.736 10 0 60071 40500.00000 0 -20356452.775 13078015.922 -8052108.384 10 0 60071 41400.00000 0 -19403704.729 12372117.531 -10983303.222 10 0 60071 42300.00000 0 -18270754.331 11341462.130 -13700916.010 10 0 60071 43200.00000 0 -17017731.038 9981939.224 -16152088.424 10 0 60071 44100.00000 0 -15706282.494 8302438.184 -18289147.560 10 0 60071 45000.00000 0 -14396935.297 6324737.345 -20070536.318 10 0 60071 45900.00000 0 -13146522.650 4082854.313 -21461623.400 10 0 60071 46800.00000 0 -12005787.410 1621883.635 -22435377.155 10 0 60071 47700.00000 0 -11017261.459 -1003630.428 -22972890.299 10 0 60071 48600.00000 0 -10213510.375 -3731718.855 -23063745.614 10 0 60071 49500.00000 0 -9615816.818 -6495326.749 -22706215.827 10 0 60071 50400.00000 0 -9233357.394 -9224869.235 -21907294.079 10 0 60071 51300.00000 0 -9062906.889 -11850898.482 -20682554.716 10 0 60071 52200.00000 0 -9089081.508 -14306771.357 -19055847.232 10 0 60071 53100.00000 0 -9285110.065 -16531207.184 -17058829.487 10 0 60071 54000.00000 0 -9614099.807 -18470629.669 -14730349.294 10 0 60071 54900.00000 0 -10030742.791 -20081196.092 -12115686.404 10 0 60071 55800.00000 0 -10483390.115 -21330429.842 -9265669.693 10 0 60071 56700.00000 0 -10916405.854 -22198389.013 -6235686.788 10 0 60071 57600.00000 0 -11272700.718 -22678323.189 -3084605.486 10 0 60071 58500.00000 0 -11496337.893 -22776791.941 126371.777 10 0 60071 59400.00000 0 -11535100.517 -22513241.252 3334897.907 10 0 60071 60300.00000 0 -11342911.893 -21919056.700 6478692.198 10 0 60071 61200.00000 0 -10882005.841 -21036134.228 9496748.622 10 0 60071 62100.00000 0 -10124755.205 -19915029.437 12330517.797 10 0 60071 63000.00000 0 -9055080.980 -18612763.847 14925039.707 10 0 60071 63900.00000 0 -7669382.249 -17190380.720 17230005.364 10 0 60071 64800.00000 0 -5976947.185 -15710353.233 19200727.220 10 0 60071 65700.00000 0 -3999827.103 -14233953.618 20799000.093 10 0 60071 66600.00000 0 -1772177.888 -12818693.206 21993836.524 10 0 60071 67500.00000 0 660904.823 -11515940.053 22762063.072 10 0 60071 68400.00000 0 3245009.409 -10368813.144 23088766.596 10 0 60071 69300.00000 0 5918424.719 -9410440.570 22967582.379 10 0 60071 70200.00000 0 8614466.822 -8662653.794 22400818.785 10 0 60071 71100.00000 0 11264020.760 -8135171.985 21399416.028 10 0 60071 72000.00000 0 13798193.046 -7825310.118 19982739.556 10 0 60071 72900.00000 0 16150965.872 -7718222.726 18178211.493 10 0 60071 73800.00000 0 18261743.645 -7787672.955 16020786.547 10 0 60071 74700.00000 0 20077686.574 -7997294.633 13552281.634 10 0 60071 75600.00000 0 21555734.521 -8302294.331 10820571.399 10 0 60071 76500.00000 0 22664236.917 -8651521.835 7878664.401 10 0 60071 77400.00000 0 23384120.576 -8989821.648 4783677.364 10 0 60071 78300.00000 0 23709546.500 -9260566.089 1595727.079 10 0 60071 79200.00000 0 23648027.964 -9408262.478 -1623238.585 10 0 60071 80100.00000 0 23220004.830 -9381123.525 -4810647.549 10 0 60071 81000.00000 0 22457892.006 -9133491.226 -7904524.345 10 0 60071 81900.00000 0 21404642.157 -8628010.652 -10844700.538 10 0 60071 82800.00000 0 20111883.463 -7837460.372 -13573990.445 10 0 60071 83700.00000 0 18637711.140 -6746160.844 -16039308.621 10 0 60071 84600.00000 0 17044226.147 -5350899.848 -18192706.819 10 0 60071 85500.00000 0 15394925.040 -3661334.615 -19992309.791 10 0 60072 0.00000 0 13752051.274 -1699852.559 -21403131.431 10 0 60072 900.00000 0 12174018.578 499105.831 -22397756.069 10 0 60072 1800.00000 0 10713016.875 2890231.981 -22956869.981 10 0 60072 2700.00000 0 9412898.080 5418996.918 -23069635.588 10 0 60072 3600.00000 0 8307432.273 8023691.082 -22733899.408 10 0 60072 4500.00000 0 7419005.818 10637772.784 -21956230.850 10 0 60072 5400.00000 0 6757815.374 13192427.828 -20751791.246 10 0 60072 6300.00000 0 6321590.556 15619234.127 -19144035.824 10 0 60072 7200.00000 0 6095855.827 17852820.725 -17164254.559 10 0 60072 8100.00000 0 6054719.428 19833410.855 -14850960.878 10 0 60072 9000.00000 0 6162155.051 21509143.465 -12249140.094 10 0 60072 9900.00000 0 6373721.153 22838076.819 -9409372.271 10 0 60072 10800.00000 0 6638644.466 23789791.089 -6386846.622 10 0 60072 11700.00000 0 6902178.858 24346523.601 -3240286.751 10 0 60072 12600.00000 0 7108139.169 24503790.000 -30807.879 10 0 60072 13500.00000 0 7201502.294 24270466.147 3179271.473 10 0 60072 14400.00000 0 7130965.028 23668328.219 6327639.998 10 0 60072 15300.00000 0 6851350.120 22731071.161 9353202.514 10 0 60072 16200.00000 0 6325758.484 21502847.474 12197263.689 10 0 60072 17100.00000 0 5527376.343 20036388.293 14804663.620 10 0 60072 18000.00000 0 4440860.663 18390785.991 17124843.412 10 0 60072 18900.00000 0 3063244.030 16629031.480 19112820.447 10 0 60072 19800.00000 0 1404320.240 14815409.257 20730055.049 10 0 60072 20700.00000 0 -513506.428 13012858.899 21945192.318 10 0 60072 21600.00000 0 -2655902.999 11280412.775 22734665.513 10 0 60072 22500.00000 0 -4977793.437 9670816.260 23083149.906 10 0 60072 23400.00000 0 -7425000.011 8228429.016 22983858.807 10 0 60072 24300.00000 0 -9936273.500 6987494.033 22438676.329 10 0 60072 25200.00000 0 -12445629.227 5970845.853 21458124.283 10 0 60072 26100.00000 0 -14884893.123 5189111.192 20061163.608 10 0 60072 27000.00000 0 -17186353.154 4640434.727 18274833.612 10 0 60072 27900.00000 0 -19285406.828 4310741.065 16133735.280 10 0 60072 28800.00000 0 -21123095.235 4174521.587 13679367.789 10 0 60072 29700.00000 0 -22648418.418 4196112.863 10959330.243 10 0 60072 30600.00000 0 -23820335.608 4331412.735 8026403.296 10 0 60072 31500.00000 0 -24609366.586 4529961.509 4937527.936 10 0 60072 32400.00000 0 -24998726.882 4737300.191 1752700.905 10 0 60072 33300.00000 0 -24984948.843 4897505.663 -1466191.857 10 0 60072 34200.00000 0 -24577962.155 4955794.956 -4656580.781 10 0 60072 35100.00000 0 -23800630.099 4861087.596 -7756433.392 10 0 60072 36000.00000 0 -22687760.874 4568416.538 -10705465.781 10 0 60072 36900.00000 0 -21284635.531 4041084.484 -13446320.554 10 0 60072 37800.00000 0 -19645114.535 3252473.116 -15925687.651 10 0 60072 38700.00000 0 -17829402.797 2187427.437 -18095345.670 10 0 60072 39600.00000 0 -15901567.361 843155.470 -19913103.002 10 0 60072 40500.00000 0 -13926912.275 -770395.891 -21343620.269 10 0 60072 41400.00000 0 -11969320.920 -2630705.958 -22359098.063 10 0 60072 42300.00000 0 -10088677.296 -4703380.409 -22939816.742 10 0 60072 43200.00000 0 -8338474.069 -6943358.211 -23074518.050 10 0 60072 44100.00000 0 -6763707.134 -9296575.675 -22760621.464 10 0 60072 45000.00000 0 -5399144.176 -11702018.782 -22004271.359 10 0 60072 45900.00000 0 -4268038.795 -14094078.732 -20820214.354 10 0 60072 46800.00000 0 -3381342.948 -16405112.873 -19231509.382 10 0 60072 47700.00000 0 -2737449.465 -18568104.573 -17269076.269 10 0 60072 48600.00000 0 -2322474.076 -20519311.382 -14971091.630 10 0 60072 49500.00000 0 -2111063.698 -22200791.261 -12382243.846 10 0 60072 50400.00000 0 -2067695.631 -23562701.638 -9552861.664 10 0 60072 51300.00000 0 -2148411.656 -24565275.558 -6537933.447 10 0 60072 52200.00000 0 -2302912.711 -25180392.642 -3396036.261 10 0 60072 53100.00000 0 -2476924.724 -25392679.544 -188195.882 10 0 60072 54000.00000 0 -2614734.763 -25200094.357 3023299.862 10 0 60072 54900.00000 0 -2661789.612 -24613971.078 6176111.095 10 0 60072 55800.00000 0 -2567246.341 -23658522.894 9209055.435 10 0 60072 56700.00000 0 -2286366.647 -22369825.712 12063293.483 10 0 60072 57600.00000 0 -1782653.450 -20794325.069 14683467.254 10 0 60072 58500.00000 0 -1029639.217 -18986929.339 17018769.621 10 0 60072 59400.00000 0 -12250.266 -17008769.235 19023924.427 10 0 60072 60300.00000 0 1272310.899 -14924717.235 20660058.812 10 0 60072 61200.00000 0 2814202.978 -12800770.274 21895451.489 10 0 60072 62100.00000 0 4591119.050 -10701404.407 22706143.183 10 0 60072 63000.00000 0 6568989.417 -8687010.992 23076398.037 10 0 60072 63900.00000 0 8703185.990 -6811520.392 22999007.553 10 0 60072 64800.00000 0 10940179.348 -5120311.206 22475431.456 10 0 60072 65700.00000 0 13219580.883 -3648491.164 21515772.774 10 0 60072 66600.00000 0 15476486.315 -2419620.420 20138587.313 10 0 60072 67500.00000 0 17644024.245 -1444929.668 18370530.733 10 0 60072 68400.00000 0 19656004.670 -723065.019 16245849.259 10 0 60072 69300.00000 0 21449557.778 -240369.759 13805723.083 10 0 60072 70200.00000 0 22967653.384 28309.336 11097474.301 10 0 60072 71100.00000 0 24161395.933 118325.353 8173653.953 10 0 60072 72000.00000 0 24991998.867 73499.211 5091025.329 10 0 60072 72900.00000 0 25432355.295 -55974.330 1909462.910 10 0 60072 73800.00000 0 25468138.561 -215893.720 -1309211.714 10 0 60072 74700.00000 0 25098385.884 -350590.056 -4502434.076 10 0 60072 75600.00000 0 24335539.967 -405530.679 -7608117.354 10 0 60072 76500.00000 0 23204946.326 -329875.789 -10565864.833 10 0 60072 77400.00000 0 21743827.119 -78878.815 -13318149.988 10 0 60072 78300.00000 0 19999774.398 383972.204 -15811440.577 10 0 60072 79200.00000 0 18028826.031 1085164.002 -17997244.297 10 0 60072 80100.00000 0 15893205.130 2039795.071 -19833055.233 10 0 60072 81000.00000 0 13658817.911 3250698.984 -21283182.468 10 0 60072 81900.00000 0 11392614.872 4708092.127 -22319444.731 10 0 60072 82800.00000 0 9159925.798 6389761.701 -22921717.679 10 0 60072 83700.00000 0 7021879.858 8261787.104 -23078323.459 10 0 60072 84600.00000 0 5033018.252 10279765.269 -22786255.253 10 0 60072 85500.00000 0 3239198.576 12390489.400 -22051232.784 99